Location: Cuzcurrita-R�o Tir�n
(42.5415°N, 2.9642°W)
Time: 18:32:26
(UTC+00:00)

Cosmos 1470 Rocket - Pass Details

Date: 27 February 2020
Orbit: 604 x 633 km, 82.5° (Epoch: 29 March)

Event Time Altitude Azimuth Distance (km) Brightness Sun altitude
Rises 18:33:18 0° 188° (S) 2,860 7.1 -7.2°
Reaches altitude 10° 18:35:29 10° 189° (S) 1,964 6.3 -7.6°
Maximum altitude 18:39:51 84° 278° (W) 627 3.7 -8.4°
Drops below altitude 10° 18:44:17 10° 7° (N) 1,998 6.1 -9.2°
Sets 18:46:32 0° 8° (N) 2,914 6.9 -9.6°
